Погода в Новоивановке

Украина / Николаевская область     47°22′07″N   32°35′28″E
В апреле 2022 года жителям России запретили посещать сайт meteo.paraplan.net по решению Генеральной прокуратуры. Аудитория сайта уменьшилась в 10 раз. Владельцы сайта не видят смысла в поддержке погодного сервера в таких условиях. Сайт будет закрыт в октябре.
темп.,
°C
ветер,
м/с
пор.,
м/с
влажн.,
%
обл.,
%
осадки,
мм/ч
давл.,
гПа
погр.,
м
25 сентября, вс
вс2500:00+9з37685 0.0 1019138
03:00+8з47695 0.0 1019123
06:00+7з36765 0.0 1019110
09:00+12з575788 0.0 1020362
12:00+17з5839100 0.0 10191566
15:00+19зюз573312 0.0 10182084
18:00+17юз574124 0.0 1017287
21:00+14ююз4770100 0.0 1017132
26 сентября, пн
пн2600:00+14ю41180100 0.1 1016332
03:00+16ююз61281100 0.5 1015422
06:00+15ююз41183100 0.4 1015329
09:00+18ююз586983 0.4 1015697
12:00+21ююз7848100 0.0 10141351
15:00+22ююз794493 0.0 10131512
18:00+19ююз5856100 0.0 1012538
21:00+16ю41078100 0.0 1011277
27 сентября, вт
вт2700:00+15ююв41096100 0.0 1010283
03:00+15ююв4998100 0.0 1009237
06:00+16ююв41097100 0.0 1007320
09:00+18ююв5979100 0.0 1006465
12:00+23ю7943100 0.0 10041505
15:00+24ююз91237100 0.0 10021744
18:00+20ю71163100 0.0 1001945
21:00+18ю61182100 0.2 1001521
28 сентября, ср
ср2800:00+17юз51090100 1.8 1001475
03:00+17юз6118587 1.9 1001535
06:00+15зюз369454 0.0 1002138
09:00+16зсз34725 0.0 1003338
12:00+21з34472 0.0 1004962
15:00+23зсз33395 0.0 10041457
18:00+21сз3346100 0.0 100559
21:00+18ссв33540 0.0 100638
29 сентября, чт
чт2900:00+16в34616 0.0 100852
03:00+15юв226657 0.0 100922
06:00+14вюв336998 0.0 101041
09:00+18вюв466171 0.0 1011256
12:00+23юв5540100 0.0 10111137
15:00+25ююв353497 0.0 10102178
18:00+23ю2243100 0.0 101124
21:00+19ююв2257100 0.0 101315